Location: Fort Worth, Tx
(32.7431°N, 97.3695°W)
Time: 04:14:21
(UTC-04:00)

Vanguard 3 - Pass Details

Date: 24 February 2024
Orbit: 510 x 3234 km, 33.3° (Epoch: 24 April)

Event Time Altitude Azimuth Distance (km) Brightness Sun altitude
Rises 01:04:39 0° 271° (W) 7,201 12.1 -65.3°
Reaches altitude 10° 01:09:38 10° 271° (W) 6,124 11.6 -65.7°
Enters shadow 01:15:05 23° 273° (W) 4,916 11.0 -66.0°
